User: anonymous   Login
Location: York
(31.8935°S, 116.7682°E)
Time: 08:41:13
(UTC+08:00)
Language:

Oscar 11 - Orbit

View from above orbital plane
View from above orbital plane
View from above satellite
View from above satellite

Ground track
Ground track

The orbit data is extracted from the following two-line orbital elements,

1 14781U 84021B   22334.41009652  .00000794  00000-0  10146-3 0  9992
2 14781  97.6355 314.4652 0009435 128.9009 231.3049 14.83998313 64655
Epoch (UTC): 30 November 2022 09:50:32
Eccentricity: 0.0009435
inclination: 97.6355°
perigee height: 610 km
apogee height: 623 km
right ascension of ascending node: 314.4652°
argument of perigee: 128.9009°
revolutions per day: 14.83998313
mean anomaly at epoch: 231.3049°
orbit number at epoch: 6465

The dashed part of the orbit path shows where the satellite is in the earth's shadow,  

DLR